OBJECT E, 44314

Orbit data source: Space-Track

You're viewing an Uncataloged Satellite

Recently launched and/or uncataloged satellites may have evolving metadata. Metadata may include but not limited to: Owner, Maufacturer, Bus, Motor, and Mission.

OBJECT E, 44314 is a satellite owned by CAST (CN) in LEO that was launched on Wed, 05 Jun 2019 UTC via a CHANG ZHENG 11 launch vehicle from the Yellow Sea Launch Area, China (YSLA). Unknown objects in Earth's orbit typically refer to objects detected orbiting the Earth but have not yet been identified or cataloged. These objects could be anything from previously untracked satellites, spent rocket stages, debris from satellite collisions, or even natural meteoroids temporarily captured by Earth's gravity.

Loading next visibility...
Identifier
44314, 2019-032E
Orbit
LEO
Country
Flag of CNCN / PRC
Related business
Manufacturer
CAST?
Mission
Operational Commercial Weather
Bus & Motor
BF, Unknown motor
Mass
~10 kg wet, ~10 kg dry
Launch date (UTC)
2019-06-05 (6 years ago)
Launch vehicle
CHANG ZHENG 11
Launch site
Yellow Sea Launch Area, China (YSLA)
Object type
Unknown
Shape & HBR
Box, 0.1 m
Radar Cross Section
0.105 m², Medium (>0.1 m² and < 1m²)

Expand to show TLE details & history
Last TLE update: 5 hours ago

TLE from 5 hours ago
0 OBJECT E
1 44314U 19032E   25242.94783356  .00020711  00000-0  77945-3 0  9997
2 44314  45.0039 137.3884 0013364 104.5600 255.6766 15.26771362343531
Epoch: 2025-08-30T22:44Z
TLE epoch observation values (Epoch: 2025-08-30T22:44:52.819Z)
Latitude
-0.00001°
Longitude
176.79349°
Altitude
487.751 km
Speed
7.622 km/s
True Right ascension
09h 09m 33s
True Declination
0° 00' 00"
Sunlit
Object was in daylight at epoch
Visualization orbit readout
Latitude
Unknown
Longitude
Unknown
Altitude
Unknown
Speed
Unknown
Apparent Right ascension
Unknown
Apparent Declination
Unknown
Sunlit
N/A
Visualization observer readout
Local Sidereal Time
18:57:32
Azimuth
Unknown
Elevation
Unknown
Doppler factor
Unknown
Orbital elements
Apogee altitude
496.254 km
Perigee altitude
477.905 km
Semi-major axis
6,865.217 km
Eccentricity
0.00134
Inclination
45.0039°
RAAN
137.3884°
Arg. of periapsis
104.56°
True anomaly
255.52828°
Mean anomaly
255.6766°
Eccentric anomaly
255.60243°
Mean motion
3.81559 °/min
Orbital period
94.35 mins
BSTAR
0.00077945
Loading maneuver chart data...
Computing Atmospheric mass density...
Loading historical data...
Loading historical data...
Loading historical data...
Loading historical data...
Loading historical data...
Loading historical data...
Loading historical data...

Documentation

Showing up to 5 results
|